{"data":{"norad_id":53627,"epoch":"2026-09-20T14:26:26.594016Z","epoch_age_seconds":72906,"freshness":"FRESH","line1":"1 53627U 22104AR  26263.60169669 -.00000085  00000+0  86173-5 0  9997","line2":"2 53627  53.1614  66.9916 0001079  74.0334 286.0788 15.34388985225349","mean_motion":15.34388985,"eccentricity":0.0001079,"inclination_deg":53.1614,"raan_deg":66.9916,"arg_perigee_deg":74.0334,"mean_anomaly_deg":286.0788,"bstar":8.6173e-6,"rev_number":22534,"period_min":93.848431791238,"perigee_km":461.9978491098,"apogee_km":463.47410949873,"semimajor_km":6840.8729793043,"source":"CELESTRAK","updated_at":"2026-09-21T09:00:32.943418Z"}}